Regional Weather Roundup
Issued by NWS

Home | Current Version | Previous Version | Text Only | Print | Product List | Glossary On
Versions: 1 2 3 4 5 6 7 8 9 10 11 12 13 14 15 16 17 18 19 20 21 22 23 24 25 26 27 28 29 30 31 32 33 34 35 36 37 38 39 40 41 42 43 44 45 46 47 48 49 50
000
ASUS43 KBIS 260110
RWRND

NORTH DAKOTA REGIONAL WEATHER ROUNDUP
NATIONAL WEATHER SERVICE BISMARCK ND
800 PM CDT THU AUG 25 2016

NOTE: "FAIR" INDICATES FEW OR NO CLOUDS BELOW 12,000 FEET WITH NO
SIGNIFICANT WEATHER AND/OR OBSTRUCTIONS TO VISIBILITY.


NDZ001>003-009>011-017-260200-
NORTHWEST NORTH DAKOTA

CITY           SKY/WX    TMP DP  RH WIND       PRES   REMARKS
WILLISTON      PTCLDY    73  37  27 W7        30.08S
MINOT          CLEAR     69  42  37 N5        30.06S
MINOT AFB      CLEAR     71  37  29 NW3       30.05S
$$

NDZ018>021-031>035-040>046-260200-
SOUTHWEST NORTH DAKOTA

CITY           SKY/WX    TMP DP  RH WIND       PRES   REMARKS
BISMARCK       CLOUDY    65  47  52 SW6       30.12S
DICKINSON      PTCLDY    66  37  34 SW6       30.12F
GARRISON         N/A     64  49  57 W3        30.08F
HETTINGER ARPT PTCLDY    63  41  44 SW5       30.16F
$$

NDZ004>008-012>016-024-026-027-054-260200-
NORTHEAST NORTH DAKOTA

CITY           SKY/WX    TMP DP  RH WIND       PRES   REMARKS
GRAND FORKS    PTCLDY    63  53  70 SW7       30.03F
GRND FRKS AFB  CLEAR     62  54  74 SW6       30.04F
DEVILS LAKE    CLEAR     66  47  50 CALM      30.07S
$$

NDZ022-023-025-028>030-036>039-047>053-260200-
SOUTHEAST NORTH DAKOTA

CITY           SKY/WX    TMP DP  RH WIND       PRES   REMARKS
FARGO          PTCLDY    63  51  65 W5        30.07S
JAMESTOWN      PTCLDY    63  51  65 W7        30.09S
$$





USA.gov is the U.S. government's official web portal to all federal, state and local government web resources and services.